{"data":{"norad_id":53535,"intl_designator":"2022-101J","name":"STARLINK-4138","alt_names":[],"object_type":"PAYLOAD","status":"ACTIVE","operator":null,"country":"US","launch_date":"2022-08-19","launch_site_code":"AFETR","launch_vehicle":null,"mission":null,"orbit_class":"UNKNOWN","rcs_meters":null,"size_class":null,"mass_kg":null,"dimensions":null,"purposes":["comms"],"wikipedia_slug":null,"has_3d_model":false,"image_url":null,"decayed_at":null,"tle_current":{"epoch":"2026-05-25T02:28:04.281312Z","epoch_age_seconds":73050,"freshness":"FRESH","line1":"1 53535U 22101J   26145.10282733  .00000675  00000+0  60504-4 0  9997","line2":"2 53535  53.2155  91.0853 0001410  80.2804 279.8348 15.08840589207703","mean_motion":15.08840589,"eccentricity":0.000141,"inclination_deg":53.2155,"raan_deg":91.0853,"arg_perigee_deg":80.2804,"mean_anomaly_deg":279.8348,"bstar":6.0504e-5,"rev_number":20770,"period_min":95.437517422193,"perigee_km":538.76616774633,"apogee_km":540.71700950832,"semimajor_km":6917.8785886273,"source":"CELESTRAK","updated_at":"2026-05-25T13:38:17.440711Z"}}}